Regional Weather Roundup
Issued by NWS

Home | Current Version | Previous Version | Text Only | Print | Product List | Glossary On
Versions: 1 2 3 4 5 6 7 8 9 10 11 12 13 14 15 16 17 18 19 20 21 22 23 24 25 26 27 28 29 30 31 32 33 34 35 36 37 38 39 40 41 42 43 44 45 46 47 48 49 50
000
ASUS44 KEWX 250802
RWRTX
SOUTH TEXAS REGIONAL WEATHER ROUNDUP
NATIONAL WEATHER SERVICE AUSTIN/SAN ANTONIO TX
200 AM CST SUN JAN 25 2015

NOTE: "FAIR" INDICATED FEW OR NO CLOUDS BELOW 12,000 FEET WITH NO
SIGNIFICANT WEATHER AND/OR OBSTRUCTIONS TO VISIBILITY.

* - THESE STATIONS ARE NOT NWS OR FAA STATIONS...AND ARE NOT SUBJECT
    TO NWS AND FAA QUALITY CONTROL.

TXZ171-172-183>190-250900-
TEXAS HILL COUNTRY AND EDWARDS PLATEAU

CITY           SKY/WX    TMP DP  RH WIND       PRES   REMARKS
JUNCTION       CLEAR     38  34  85 W3        30.09R
*LLANO         CLEAR     41  36  81 CALM      30.10R
BURNET         CLEAR     45  36  70 W7        30.07R WCI  41
*HORSESHOE BAY CLEAR     50  33  52 W3        30.06R
*KERRVILLE     CLOUDY    36  34  94 CALM      30.08R
*FREDERICKSBRG CLEAR     39  34  81 W5        30.07S WCI  36
*ROCKSPRINGS   CLEAR     45  32  61 W7        30.09F WCI  41
*BOERNE STAGE  MOCLDY    46  34  61 CALM      30.07F
*CASTROVILLE   MOCLDY    45  39  81 CALM      30.10F
HONDO          CLOUDY    43  39  86 SW7       30.11F WCI  39
*UVALDE        CLOUDY    42  38  84 CALM      30.11F
DEL RIO        CLOUDY    41  37  86 CALM      30.09F
LAUGHLIN AFB   CLOUDY    40  36  85 N2        30.09F
CARRIZO SPRGS  CLOUDY    46  34  61 CALM      30.10F
$$

TXZ173-191>194-202-209-217>225-228-250900-
CENTRAL AND SOUTH CENTRAL TEXAS

CITY           SKY/WX    TMP DP  RH WIND       PRES   REMARKS
GEORGETOWN     CLEAR     43  36  75 CALM      30.05R
AUSTIN/BERGSTM PTCLDY    45  38  76 W8        30.05S WCI  41
AUSTIN/MABRY   CLEAR     46  37  71 CALM      30.06S
*AUSTIN/EXEC   PTCLDY    39  36  87 SW7       30.05S WCI  34
*LAGO VISTA    PTCLDY    46  37  72 W5        30.05S WCI  43
SAN MARCOS     PTCLDY    43  36  75 CALM      30.07S
NEW BRAUNFELS  MOCLDY    42  38  85 SW6       30.06F WCI  38
RANDOLPH AFB   MOCLDY    49  37  62 SW6       30.06F WCI  46
PT SAN ANTONIO MOCLDY    45  39  78 SW2       30.06F
SAN ANTONIO    MOCLDY    47  39  74 CALM      30.07F
STINSON FIELD  CLOUDY    47  38  71 SW6       30.07F WCI  44
*PLEASANTON    CLOUDY    48  37  65 W3        30.11F
*LA GRANGE     CLEAR     47  36  65 SW6       30.04F WCI  45
*GIDDINGS      NOT AVBL
*GONZALES      CLEAR     48  36  61 SW3       30.07S
$$

TXZ163>164-176>182-195>201-210>213-226-227-235-250900-
SOUTHEAST TEXAS

CITY           SKY/WX    TMP DP  RH WIND       PRES   REMARKS
COLLEGE STN    CLEAR     44  35  70 S5        30.04S WCI  42
*BRYAN         CLEAR     46  35  66 SW7       30.05S WCI  42
*CALDWELL      CLEAR     43  36  75 SW5       30.07F WCI  40
*CROCKETT      CLEAR     41  37  87 CALM      30.05F
*BRENHAM       CLEAR     49  36  60 SW5       30.06S WCI  47
HUNTSVILLE     CLEAR     45  35  68 SW7       30.03F WCI  41
CONROE         PTCLDY    36  34  92 CALM      30.06S
HOUSTON BUSH   PTCLDY    46  38  73 SW3       30.06F
HOUSTON HOBBY  PTCLDY    44  42  93 SW6       30.06F WCI  41
*HOUSTON SW AP CLEAR     40  39  99 S5        30.09F WCI  36
PEARLAND       CLEAR     46  43  89 CALM      30.08F
HOUSTON HOOKS  CLEAR     45  37  73 SW5       30.06F WCI  43
ELLINGTON FLD  NOT AVBL
SUGAR LAND     CLEAR     44  40  85 SW5       30.07F WCI  42
*HOUSTON EXEC    N/A    N/A N/A N/A MISG        N/A
*CLEVELAND MUN NOT AVBL
*WHARTON       CLOUDY    45  42  90 SW3       30.10S
*COLUMBUS      FAIR      46  35  66 SW7       30.06F WCI  42
$$

TXZ214>216-236>238-250900-
THE UPPER TEXAS COAST

CITY           SKY/WX    TMP DP  RH WIND       PRES   REMARKS
*ORANGE        PTCLDY    45  43  93 SW3       30.09S
PORT ARTHUR    PTCLDY    44  42  93 SW5       30.07F FOG     WCI  42
GALVESTON      CLEAR     49  46  90 SW6       30.09F WCI  46
ANGLETON         N/A     46  45  96 S6        30.09F WCI  43
*BAY CITY      CLOUDY    44  44 100 CALM      30.09F
PALACIOS       CLOUDY    48  45  89 SW6       30.10F WCI  45
$$

TXZ229>234-239>247-250900-
TEXAS COASTAL BEND AND RIO GRANDE PLAINS

CITY           SKY/WX    TMP DP  RH WIND       PRES   REMARKS
VICTORIA       CLOUDY    47  39  74 SW6       30.10F WCI  44
*BEEVILLE      CLOUDY    47  36  66 W6        30.11F WCI  44
ROCKPORT       PTCLDY    50  40  68 SW6       30.12S WCI  48
*PORT ARANSAS  CLOUDY    50  43  77 SW5       30.12S WCI  48
*PORT LAVACA   CLOUDY    47  44  88 W7        30.11S WCI  43
*INGLESIDE     PTCLDY    51  40  67 SW7       30.12S
CORPUS CHRISTI MOCLDY    44  38  79 SW9       30.12S WCI  39
CORPUS NAS     PTCLDY    46  39  76 SW9       30.12S WCI  41
*ROBSTOWN      NOT AVBL
ALICE          PTCLDY    47  35  63 W7        30.12S WCI  44
KINGSVILLE NAS PTCLDY    43  36  76 SW7       30.12F WCI  39
COTULLA        CLOUDY    47  37  68 NW6       30.11F WCI  44
*FAITH RANCH   CLOUDY    45  34  65 SW3       30.12S
LAREDO         NOT AVBL
$$

TXZ248>255-250900-
DEEP SOUTH TEXAS

CITY           SKY/WX    TMP DP  RH WIND       PRES   REMARKS
BROWNSVILLE    PTCLDY    47  45  93 S3        30.16F
PORT ISABEL    PTCLDY    47  44  90 SW5       30.14F WCI  45
*SOUTH PADRE   PTCLDY   N/A N/A N/A W7        30.16S
HARLINGEN      MOCLDY    48  43  82 S8        30.14F WCI  44
*HEBBRONVILLE  MOCLDY    43  34  71 SW7       30.13S WCI  38
MCALLEN        MOCLDY    45  41  86 SE3       30.15F
*WESLACO       MOCLDY    48  40  74 S7        30.15F WCI  45
FALFURRIAS     PTCLDY    42  33  70 SW3       30.13S
EDINBURG       PTCLDY    49  41  73 S5        30.15F WCI  48
*ZAPATA        PTCLDY    41  37  87 CALM      30.12F
$$

TXZ213>215-236>238-242>244-246-247-251-254-255-250900-
CMAN STATIONS

STATION/POSITION TIME  TEMP    WIND        PRES    WAVE
                       AIR SEA DIR/SP/G            HT/PER
                 (UTC) (F)     (DEG/KT/KT) (MB)    (FT/S)
SABINE PASS      0700   46 51  240/  2/  5 1018.6
SEA RIM ST PARK  0700   46     260/  6/  7 1019.4
NORTH JETTY/GLS  0700   51 53  270/ 10/ 12   N/A
EAGLE POINT      0700   47 51  240/  5/  5 1018.7
MORGANS POINT    0700   49     230/  4/  5 1018.3
MISSION/ARANSAS  0700   52     VRB  9      1020.0
PORT O`CONNOR    0700          230/ 10/ 12   N/A
PORT ARANSAS     0700   53 54  240/ 11/ 13 1020.1
MALAQUITE BEACH  0700   49 54  230/  8/ 10 1019.6
BAFFIN BAY       0700   50     210/ 11/ 13 1020.3
PORT ISABEL      0700   49 55  200/  4/  5 1021.4
$$

GMZ080-GMZ150>470-250900-
OFFSHORE BUOY REPORTS

STATION/POSITION TIME  TEMP    WIND        PRES    WAVE
                       AIR SEA DIR/SP/G            HT/PER
                 (UTC) (F)     (DEG/KT/KT) (MB)    (FT/S)
20 E GALVESTON   0800   54 54  250/  8/ 10 1018.4    2/ 5
90 E PT ARANSAS  0800   63 69  250/ 16/ 19 1019.6    2/ 4
35 NE PT MANSFLD 0800   60 66  220/ 19/ 21 1020.0    3/ 4
200 E PT ISABEL  0800   62 72  260/ 10/ 16 1020.6    3/ 6
$$


USA.gov is the U.S. government's official web portal to all federal, state and local government web resources and services.